sat.trackr.live / text

‹ back to catalog

UNKNOWN

NORAD 81359

UNKNOWN UNKNOWN UNKNOWN

§ Identity

Operator
Country
Launch date
Launch site
Launch vehicle
Mass (kg)
RCS (m²)

External: N2YO · Heavens-Above

§ Orbital elements

Epoch: 2026-09-16T00:13:26.456736Z

Period
104.41 min
Inclination
66.7965°
Eccentricity
0.0110564
Mean motion
13.79238785 rev/d
Perigee alt
885.4 km
Apogee alt
1,047.8 km
Semi-major
7,344.7 km
B*
5.3056e-4
RAAN
108.1094°
Arg perigee
138.8610°
Mean anomaly
222.0865°
Rev number
64,371

§ Raw data

UNKNOWN1 81359U          26259.00933399  .00000496  00000+0  53056-3 0  99962 81359  66.7965 108.1094 0110564 138.8610 222.0865 13.79238785643713

JSON: /api/v1/satellites/81359 · /tle

For live sub-satellite position, see the globe view (requires WebGL).

§ Visibility from observer

Set your observer location to see the next 7 days of passes ≥ 10°. The values pass through the URL so the page stays shareable.

No JS? Fill the form by hand. The geolocation button needs JavaScript.